ONEWEB-0137, 47283

Orbit data source: Space-Track

ONEWEB-0137, 47283 is a payload satellite owned by One Web (UK) in LEO that was launched on Fri, 18 Dec 2020 UTC via a SOYUZ-2-1B launch vehicle from the Vostochny Cosmodrome (VOSTO). Payload-class satellites include a variety of spacecraft equipped with specific instruments for various scientific and technological missions. These include communications satellites like Starlink; space stations such as the ISS; scientific satellites like the Hubble; Earth observation satellites from companies like Planet Labs, Umbra, and HawkEye 360; GPS; miniature CubeSats for education and research; and military/defense satellites.

Loading next visibility...
Identifier
47283, 2020-100AB
Orbit
LEO
Country
Flag of UKUK
Related business
Manufacturer
One Web
Mission
Operational Commercial Communications
Bus & Motor
ARROW, Unknown motor
Mass
148 kg wet, ~140 kg dry
Launch date (UTC)
2020-12-18 (6 years ago)
Launch vehicle
SOYUZ-2-1B
Launch site
Vostochny Cosmodrome (VOSTO)
Object type
Payload
Rocket body
Debris
Shape & HBR
Trap Box + 2 Pan, 6.7 m
Radar Cross Section
3.464 m², Large (>1 m²)

Expand to show TLE details & history
Last TLE update: 2 days ago

TLE from 2 days ago
0 ONEWEB-0137
1 47283U 20100AB  26171.42740448 -.00000380  00000-0 -10921-2 0  9995
2 47283  87.8940 350.0161 0002140  86.0699 274.0674 13.12443246264993
Epoch: 2026-06-20T10:15Z
TLE epoch observation values (Epoch: 2026-06-20T10:15:27.747Z)
Latitude
-0.00002°
Longitude
-72.49169°
Altitude
1,216.498 km
Speed
7.246 km/s
True Right ascension
23h 20m 03s
True Declination
0° 00' 00"
Sunlit
Object was in daylight at epoch
Visualization orbit readout
Latitude
Unknown
Longitude
Unknown
Altitude
Unknown
Speed
Unknown
Apparent Right ascension
Unknown
Apparent Declination
Unknown
Sunlit
N/A
Visualization observer readout
Local Sidereal Time
21:38:34
Azimuth
Unknown
Elevation
Unknown
Doppler factor
Unknown
Orbital elements
Apogee altitude
1,212.463 km
Perigee altitude
1,209.215 km
Semi-major axis
7,588.976 km
Eccentricity
0.00021
Inclination
87.894°
RAAN
350.0161°
Arg. of periapsis
86.0699°
True anomaly
274.04294°
Mean anomaly
274.0674°
Eccentric anomaly
274.05517°
Mean motion
3.28298 °/min
Orbital period
109.66 mins
BSTAR
-0.0010921
Loading maneuver chart data...
Computing Atmospheric mass density...
Loading historical data...
Loading historical data...
Loading historical data...
Loading historical data...
Loading historical data...
Loading historical data...
Loading historical data...

Documentation

Showing up to 5 results
|